Location: Bukit Nyuki
(2.5885°N, 113.7476°E)
Time: 17:09:10
(UTC+00:00)

YAOGAN 6 - Pass Details

Date: 18 May 2021
Orbit: 464 x 503 km, 97.0° (Epoch: 20 June)

Event Time Altitude Azimuth Distance (km) Brightness Sun altitude
Rises 21:42:58 0° 3° (N) 2,545 6.6 -8.2°
Reaches altitude 10° 21:45:04 10° 359° (N) 1,661 5.5 -7.7°
Maximum altitude 21:48:34 54° 281° (W) 586 2.7 -6.9°
Drops below altitude 10° 21:52:01 10° 203° (SSW) 1,645 4.9 -6.0°
Sets 21:54:06 0° 198° (SSW) 2,518 5.8 -5.6°
